Regional Weather Roundup
Issued by NWS Lake Charles, LA

Home | Current Version | Previous Version | Text Only | Print | Product List | Glossary On
Versions: 1 2 3 4 5 6 7 8 9 10 11 12 13 14 15 16 17 18 19 20 21 22 23 24 25 26 27 28 29 30 31 32 33 34 35 36 37 38 39 40 41 42 43 44 45 46 47 48 49 50
000
ASUS44 KLCH 042010
RWRLCH
RWRLCH
REGIONAL WEATHER ROUNDUP
NATIONAL WEATHER SERVICE LAKE CHARLES LA
300 PM CDT MON MAY 04 2015

Note: "fair" indicates few or no clouds below 12,000 feet with no
significant weather and/or obstructions to visibility.


ACROSS SOUTHEAST TEXAS

CITY           SKY/WX    TMP DP  RH WIND       PRES   REMARKS
BEAUMONT       MOSUNNY   83  60  45 S12       30.10F
BEAUMONT CITY    N/A     82  60  48 SE10      30.10F
ORANGE         PTCLDY    82  55  39 E7        30.12F
JASPER         NOT AVBL
$$

ACROSS CENTRAL LOUISIANA

CITY           SKY/WX    TMP DP  RH WIND       PRES   REMARKS
LEESVILLE      PTSUNNY   79  56  44 SE10      30.11F
FULLERTON        N/A     85  56  37 VRB6G16   30.10S
ALEXANDRIA INT MOSUNNY   84  59  42 SE10G22   30.11F
ESLER FIELD    MOSUNNY   84  62  47 E10       30.13F
DERIDDER       MOCLDY    80  55  42 SE8       30.14S
OAKDALE        MOCLDY    82  62  50 E10       30.12F
OPELOUSAS      MOCLDY   N/A N/A N/A E9        30.11F
$$

ACROSS SOUTHWEST AND SOUTH CENTRAL LOUISIANA

CITY           SKY/WX    TMP DP  RH WIND       PRES   REMARKS
SULPHUR        PTCLDY    82  59  45 SE6       30.12F
LAKE CHARLES   PTSUNNY   81  59  47 E12       30.11F
CHENNAULT INT  NOT AVBL
CAMERON PHI    CLEAR     77  63  61 SE10      30.14F
DEQUINCY       MOCLDY    79  58  48 NE7       30.12S
JENNINGS       MOCLDY    82  63  51 E10       30.11F
LAFAYETTE      MOSUNNY   82  65  56 VRB5      30.11F
NEW IBERIA       N/A    N/A N/A N/A MISG      30.12F
ABBEVILLE        N/A     82  65  56 SE9       30.11F
PATTERSON      PTSUNNY  N/A N/A N/A E10       30.14F
SALT POINT       N/A     78  68  71 E9G18     30.11F
$$

SELECTED SITES ACROSS THE REGION

CITY           SKY/WX    TMP DP  RH WIND       PRES   REMARKS
HOUSTON BUSH   MOSUNNY   83  54  36 SE10G18   30.07F
HOUSTON HOBBY  MOSUNNY   81  53  37 E13       30.07F
GALVESTON      SUNNY     79  63  57 SE13G18   30.09F
COLLEGE STAT   SUNNY     80  58  46 SE10      30.06F
CONROE         MOSUNNY   83  50  31 E12G17    30.08F
HUNTSVILLE     SUNNY     83  49  30 E5        30.08F
LUFKIN         PTSUNNY   83  57  41 SE8       30.10F
SHREVEPORT     MOSUNNY   83  59  44 E8        30.11F
MONROE         SUNNY     83  59  44 VRB6      30.15F
NATCHEZ MS     PTSUNNY   79  66  65 E6        30.16F
BATON ROUGE    PTSUNNY   83  64  52 E16G29    30.14F
N.O. INTL ARPT PTSUNNY   80  61  52 SE15      30.16F
SLIDELL        MOSUNNY   81  65  58 SE12G18   30.17F
$$

MARINE REPORTS

STATION/POSITION TIME  TEMP    WIND        PRES    VSBY  WAVE
                       AIR SEA DIR/SP/G                  HT/PER
                 (UTC) (F)     (DEG/KT/KT) (MB)    (MI)  (FT/S)
BUOY 30 S HIGH I 1950   75 76   90/ 12/ 14 1018.8F         2/ 5
SEA RIM ST PARK  2000   76     110/ 14/ 16 1020.0F
PORT ARTHUR      1900      72  110/  6/  8 1020.0F
SABINE PASS N    1900   76 75  140/ 12/ 15 1020.1F
TEXAS POINT      NOT AVBL
CALCASIEU PASS   1900   76 77  170/  7/  9   N/A
LK CHARLES BEACH 1900   79 71              1020.2F
MARSH ISLAND     1900   76     100/ 10/ 11   N/A           0
FRESH WATER LOCK 1900   78 78  110/  7/ 12 1020.2F
AMERADA PASS     1900   74 73  110/ 10/ 19 1020.4F
$$



USA.gov is the U.S. government's official web portal to all federal, state and local government web resources and services.